THOR AGENA D R/B, 733

Orbit data source: Space-Track

THOR AGENA D R/B, 733 is space debris in SSO originally from a launch on Sun, 19 Jan 1964 UTC launched from the Air Force Western Test Range (AFWTR). Debris objects in space refer to the collection of defunct objects orbiting the Earth. Examples of debris include non-operational satellites, rocket bodies, and fragments generated from explosions, collisions, or faulty payload assembly.

Loading next visibility...
Identifier
733, 1964-002A
Orbit
SSO
Country
Flag of USUS
Related business
Manufacturer
LMSC
Mission
Spacecraft
Bus & Motor
AGENA D, Unknown motor
Mass
600 kg wet, 600 kg dry
Launch date (UTC)
1964-01-19 (62 years ago)
Launch vehicle
Unknown
Launch site
Air Force Western Test Range (AFWTR)
Object type
Payload
Rocket body
Debris
Shape & HBR
Cyl + 1 Nozzle, 3.1 m
Radar Cross Section
8.306 m², Large (>1 m²)

Expand to show TLE details & history
Last TLE update: 8 hours ago

TLE from 8 hours ago
0 THOR AGENA D R/B
1 00733U 64002A   25260.96497211  .00000238  00000-0  10249-3 0  9991
2 00733  99.1213 259.9376 0033733  42.6733 317.7061 14.33875227213547
Epoch: 2025-09-17T23:09Z
TLE epoch observation values (Epoch: 2025-09-17T23:09:33.59Z)
Latitude
-0.00001°
Longitude
-84.58572°
Altitude
763.902 km
Speed
7.482 km/s
True Right ascension
17h 19m 45s
True Declination
0° 00' 00"
Sunlit
Object was in daylight at epoch
Visualization orbit readout
Latitude
Unknown
Longitude
Unknown
Altitude
Unknown
Speed
Unknown
Apparent Right ascension
Unknown
Apparent Declination
Unknown
Sunlit
N/A
Visualization observer readout
Local Sidereal Time
23:31:51
Azimuth
Unknown
Elevation
Unknown
Doppler factor
Unknown
Orbital elements
Apogee altitude
800.1 km
Perigee altitude
751.834 km
Semi-major axis
7,154.104 km
Eccentricity
0.00337
Inclination
99.1213°
RAAN
259.9376°
Arg. of periapsis
42.6733°
True anomaly
317.44516°
Mean anomaly
317.7061°
Eccentric anomaly
317.57571°
Mean motion
3.58683 °/min
Orbital period
100.37 mins
BSTAR
0.00010249
Loading maneuver chart data...
Computing Atmospheric mass density...
Loading historical data...
Loading historical data...
Loading historical data...
Loading historical data...
Loading historical data...
Loading historical data...
Loading historical data...
Other satellites on launch #2 in the year 1964 (1964-01-19 UTC)

Documentation

Showing up to 5 results
|